When you browse on this site, cookies collect data to enhance your experience and personalize the content and advertising you see.
Visit our Privacy Policy to learn more. By continuing to use the site, you agree to this use of cookies and data.
  • în România
  • Lista ţărilor
  • Pe 7 zile
  • Temperatura apei
  • Meteo pe hartă
  • Widget-uri
  • user-avatar
    Intrare

    Meteo pe oră la Mérida

    Astăzi, 25 August, Duminică

    Timp Temperatura Precipitaţii Vânt Presiune Umiditate
    00:00 +14°C° 0 mm 2 m/s 593 mmHg 87%
    01:00 +14°C° 0 mm 2 m/s 592 mmHg 87%
    02:00 +14°C° 0 mm 2 m/s 592 mmHg 87%
    03:00 +14°C° 0 mm 2 m/s 592 mmHg 87%
    04:00 +14°C° 0 mm 2 m/s 592 mmHg 88%
    05:00 +15°C° 0 mm 2 m/s 592 mmHg 85%
    06:00 +16°C° 0 mm 2 m/s 593 mmHg 83%
    07:00 +17°C° 0 mm 2 m/s 594 mmHg 81%
    08:00 +18°C° 0.1 mm 2 m/s 594 mmHg 76%
    09:00 +20°C° 0.1 mm 2 m/s 595 mmHg 71%
    10:00 +21°C° 0.1 mm 2 m/s 596 mmHg 66%
    11:00 +21°C° 1 mm 2 m/s 595 mmHg 71%
    12:00 +20°C° 1 mm 2 m/s 595 mmHg 75%
    13:00 +20°C° 1 mm 2 m/s 594 mmHg 80%
    14:00 +20°C° 1 mm 2 m/s 594 mmHg 79%
    15:00 +20°C° 1 mm 2 m/s 593 mmHg 78%
    16:00 +21°C° 1 mm 1 m/s 593 mmHg 76%
    17:00 +19°C° 0.3 mm 1 m/s 593 mmHg 82%
    18:00 +18°C° 0.3 mm 1 m/s 592 mmHg 87%
    19:00 +15°C° 0.3 mm 1 m/s 592 mmHg 92%
    20:00 +15°C° 0 mm 2 m/s 592 mmHg 90%
    21:00 +15°C° 0 mm 2 m/s 592 mmHg 88%
    22:00 +14°C° 0 mm 2 m/s 592 mmHg 85%
    23:00 +14°C° 0 mm 2 m/s 592 mmHg 85%

    Mâine, 26 August, Luni

    Timp Temperatura Precipitaţii Vânt Presiune Umiditate
    00:00 +14°C° 0 mm 2 m/s 592 mmHg 84%
    01:00 +14°C° 0 mm 2 m/s 591 mmHg 83%
    02:00 +14°C° 0 mm 2 m/s 591 mmHg 83%
    03:00 +14°C° 0 mm 2 m/s 591 mmHg 83%
    04:00 +14°C° 0 mm 2 m/s 591 mmHg 83%
    05:00 +15°C° 0 mm 2 m/s 592 mmHg 82%
    06:00 +16°C° 0 mm 2 m/s 593 mmHg 80%
    07:00 +17°C° 0 mm 2 m/s 594 mmHg 79%
    08:00 +18°C° 0.1 mm 2 m/s 594 mmHg 77%
    09:00 +19°C° 0.1 mm 2 m/s 595 mmHg 76%
    10:00 +20°C° 0.1 mm 2 m/s 595 mmHg 74%
    11:00 +19°C° 0.9 mm 2 m/s 595 mmHg 78%
    12:00 +19°C° 0.9 mm 2 m/s 594 mmHg 81%
    13:00 +19°C° 0.9 mm 2 m/s 594 mmHg 85%
    14:00 +20°C° 1.3 mm 1 m/s 593 mmHg 85%
    15:00 +20°C° 1.3 mm 1 m/s 593 mmHg 86%
    16:00 +19°C° 1.3 mm 1 m/s 592 mmHg 86%
    17:00 +18°C° 0.5 mm 1 m/s 592 mmHg 88%
    18:00 +18°C° 0.5 mm 1 m/s 592 mmHg 90%
    19:00 +16°C° 0.5 mm 1 m/s 592 mmHg 91%
    20:00 +15°C° 0.1 mm 1 m/s 592 mmHg 90%
    21:00 +15°C° 0.1 mm 1 m/s 592 mmHg 89%
    22:00 +15°C° 0.1 mm 2 m/s 592 mmHg 88%
    23:00 +14°C° 0 mm 2 m/s 592 mmHg 88%

    Poimâine, 27 August, Marţi

    Timp Temperatura Precipitaţii Vânt Presiune Umiditate
    00:00 +14°C° 0 mm 2 m/s 592 mmHg 88%
    01:00 +14°C° 0 mm 2 m/s 592 mmHg 88%
    02:00 +14°C° 0 mm 2 m/s 592 mmHg 89%
    03:00 +14°C° 0 mm 2 m/s 591 mmHg 89%
    04:00 +14°C° 0 mm 2 m/s 591 mmHg 89%
    05:00 +15°C° 0 mm 2 m/s 592 mmHg 87%
    06:00 +16°C° 0 mm 1 m/s 593 mmHg 85%
    07:00 +16°C° 0 mm 1 m/s 594 mmHg 84%
    08:00 +18°C° 0.1 mm 2 m/s 595 mmHg 79%
    09:00 +20°C° 0.1 mm 2 m/s 595 mmHg 74%
    10:00 +21°C° 0.1 mm 2 m/s 596 mmHg 68%
    11:00 +21°C° 0.9 mm 2 m/s 595 mmHg 73%
    12:00 +21°C° 0.9 mm 2 m/s 595 mmHg 77%
    13:00 +20°C° 0.9 mm 2 m/s 594 mmHg 81%
    14:00 +20°C° 0.8 mm 2 m/s 594 mmHg 81%
    15:00 +21°C° 0.8 mm 1 m/s 593 mmHg 81%
    16:00 +21°C° 0.8 mm 1 m/s 593 mmHg 81%
    17:00 +19°C° 0.6 mm 1 m/s 592 mmHg 86%
    18:00 +18°C° 0.6 mm 1 m/s 592 mmHg 90%
    19:00 +16°C° 0.6 mm 1 m/s 592 mmHg 95%
    20:00 +15°C° 0.1 mm 1 m/s 592 mmHg 92%
    21:00 +15°C° 0.1 mm 1 m/s 592 mmHg 90%
    22:00 +14°C° 0.1 mm 2 m/s 593 mmHg 88%
    23:00 +14°C° 0.1 mm 2 m/s 592 mmHg 88%

    28 August, Miercuri

    Timp Temperatura Precipitaţii Vânt Presiune Umiditate
    00:00 +14°C° 0.1 mm 2 m/s 592 mmHg 89%
    01:00 +14°C° 0.1 mm 2 m/s 592 mmHg 89%
    02:00 +14°C° 0.1 mm 2 m/s 592 mmHg 89%
    03:00 +15°C° 0.1 mm 2 m/s 592 mmHg 88%
    04:00 +15°C° 0.1 mm 1 m/s 592 mmHg 88%
    05:00 +15°C° 0 mm 1 m/s 593 mmHg 86%
    06:00 +16°C° 0 mm 1 m/s 593 mmHg 84%
    07:00 +18°C° 0 mm 1 m/s 594 mmHg 82%
    08:00 +18°C° 0.2 mm 2 m/s 595 mmHg 78%
    09:00 +20°C° 0.2 mm 2 m/s 596 mmHg 74%
    10:00 +21°C° 0.2 mm 2 m/s 596 mmHg 70%
    11:00 +21°C° 1.2 mm 2 m/s 595 mmHg 73%
    12:00 +21°C° 1.2 mm 2 m/s 595 mmHg 76%
    13:00 +21°C° 1.2 mm 2 m/s 594 mmHg 79%
    14:00 +20°C° 1.1 mm 2 m/s 593 mmHg 81%
    15:00 +20°C° 1.1 mm 2 m/s 593 mmHg 83%
    16:00 +20°C° 1.1 mm 1 m/s 592 mmHg 85%
    17:00 +19°C° 0.4 mm 1 m/s 592 mmHg 87%
    18:00 +18°C° 0.4 mm 1 m/s 592 mmHg 90%
    19:00 +16°C° 0.4 mm 1 m/s 592 mmHg 92%
    20:00 +16°C° 0.3 mm 1 m/s 592 mmHg 91%
    21:00 +15°C° 0.3 mm 1 m/s 592 mmHg 90%
    22:00 +15°C° 0.3 mm 2 m/s 593 mmHg 89%
    23:00 +15°C° 0 mm 1 m/s 592 mmHg 89%

    29 August, Joi

    Timp Temperatura Precipitaţii Vânt Presiune Umiditate
    00:00 +15°C° 0 mm 1 m/s 592 mmHg 89%
    01:00 +15°C° 0 mm 1 m/s 592 mmHg 88%
    02:00 +14°C° 0 mm 1 m/s 591 mmHg 88%
    03:00 +14°C° 0 mm 2 m/s 591 mmHg 87%
    04:00 +14°C° 0 mm 2 m/s 591 mmHg 87%
    05:00 +15°C° 0 mm 2 m/s 592 mmHg 84%
    06:00 +16°C° 0 mm 2 m/s 592 mmHg 81%
    07:00 +17°C° 0 mm 2 m/s 593 mmHg 78%
    08:00 +18°C° 0.1 mm 2 m/s 594 mmHg 72%
    09:00 +20°C° 0.1 mm 2 m/s 595 mmHg 67%
    10:00 +23°C° 0.1 mm 2 m/s 596 mmHg 61%
    11:00 +21°C° 0.5 mm 2 m/s 595 mmHg 66%
    12:00 +21°C° 0.5 mm 2 m/s 594 mmHg 70%
    13:00 +21°C° 0.5 mm 2 m/s 593 mmHg 74%
    14:00 +20°C° 0.8 mm 2 m/s 593 mmHg 77%
    15:00 +21°C° 0.8 mm 1 m/s 592 mmHg 79%
    16:00 +20°C° 0.8 mm 1 m/s 592 mmHg 82%
    17:00 +19°C° 0.5 mm 1 m/s 592 mmHg 86%
    18:00 +18°C° 0.5 mm 1 m/s 592 mmHg 90%
    19:00 +15°C° 0.5 mm 1 m/s 591 mmHg 93%
    20:00 +15°C° 0.5 mm 1 m/s 592 mmHg 92%
    21:00 +15°C° 0.5 mm 2 m/s 592 mmHg 90%
    22:00 +15°C° 0.5 mm 2 m/s 593 mmHg 89%
    23:00 +15°C° 0.6 mm 2 m/s 592 mmHg 89%

    30 August, Vineri

    Timp Temperatura Precipitaţii Vânt Presiune Umiditate
    00:00 +15°C° 0.6 mm 2 m/s 592 mmHg 89%
    01:00 +15°C° 0.6 mm 2 m/s 592 mmHg 88%
    02:00 +15°C° 0 mm 1 m/s 592 mmHg 88%
    03:00 +15°C° 0 mm 1 m/s 591 mmHg 88%
    04:00 +14°C° 0 mm 1 m/s 591 mmHg 87%
    05:00 +15°C° 0 mm 1 m/s 592 mmHg 85%
    06:00 +16°C° 0 mm 1 m/s 593 mmHg 82%
    07:00 +18°C° 0 mm 1 m/s 594 mmHg 80%
    08:00 +19°C° 0.2 mm 1 m/s 594 mmHg 76%
    09:00 +21°C° 0.2 mm 1 m/s 595 mmHg 73%
    10:00 +21°C° 0.2 mm 2 m/s 596 mmHg 69%
    11:00 +21°C° 1.1 mm 2 m/s 595 mmHg 74%
    12:00 +21°C° 1.1 mm 1 m/s 594 mmHg 79%
    13:00 +21°C° 1.1 mm 1 m/s 593 mmHg 84%
    14:00 +20°C° 1.6 mm 1 m/s 593 mmHg 86%
    15:00 +20°C° 1.6 mm 1 m/s 592 mmHg 88%
    16:00 +19°C° 1.6 mm 1 m/s 592 mmHg 90%
    17:00 +19°C° 1.4 mm 1 m/s 592 mmHg 92%
    18:00 +18°C° 1.4 mm 1 m/s 592 mmHg 93%
    19:00 +16°C° 1.4 mm 1 m/s 592 mmHg 94%
    20:00 +16°C° 0.9 mm 1 m/s 592 mmHg 93%
    21:00 +16°C° 0.9 mm 1 m/s 593 mmHg 92%
    22:00 +16°C° 0.9 mm 1 m/s 593 mmHg 91%
    23:00 +15°C° 0.1 mm 1 m/s 593 mmHg 90%
    Arată mai mult